User: anonymous   Login
Location: Unspecified
(0.0000°N, 0.0000°E)
Time: 11:02:56
(UTC+00:00)
Language:

N. Korean satellite - Orbit

View from above orbital plane
View from above orbital plane
View from above satellite
View from above satellite

Ground track
Ground track

The orbit data is extracted from the following two-line orbital elements,

1 39026U 12072A   19141.17250133  .00001017  00000-0  39479-4 0  9995
2 39026  97.2111 145.2473 0037471 200.1199 159.8567 15.27744452357246
Epoch (UTC): 21 May 2019 04:08:24
Eccentricity: 0.0037471
inclination: 97.2111°
perigee height: 457 km
apogee height: 508 km
right ascension of ascending node: 145.2473°
argument of perigee: 200.1199°
revolutions per day: 15.27744452
mean anomaly at epoch: 159.8567°
orbit number at epoch: 35724

The dashed part of the orbit path shows where the satellite is in the earth's shadow,  

DLR